EUTELSAT 117 WEST B

Last updated on Fri Jul 11 2025 00:02:44 GMT+0000 (Coordinated Universal Time)

1 41589U 16038B 25191.53100251 .00000001 00000+0 00000+0 0 9999 2 41589 0.0387 197.7772 0000271 101.8026 63.2714 1.00272172 33286
UTC large
Height (km)
Speed (km/s)
/
Latitude / Longitude
Inclination (degrees)
Orbital Period (minutes)
Azimuth
Elevation
Range (km)
Doppler Factor

Next 0 passes for location: London (51.5072 / 0.1276)

Sorry there are no passes over London.